Regional Weather Roundup
Issued by NWS Sioux Falls, SD

Home | Current Version | Previous Version | Graphics & Text | Print | Product List | Glossary On
Versions: 1 2 3 4 5 6 7 8 9 10 11 12 13 14 15 16 17 18 19 20 21 22 23 24 25 26 27 28 29 30 31 32 33 34 35 36 37 38 39 40 41 42 43 44 45 46 47 48 49 50
000
ASUS43 KFSD 231510
RWRFSD

WEATHER ROUNDUP FOR SE SOUTH DAKOTA/SW MINNESOTA/NW IOWA
NATIONAL WEATHER SERVICE SIOUX FALLS SD
1000 AM CDT MON APR 23 2018

NOTE: "FAIR" INDICATES FEW OR NO CLOUDS BELOW 12,000 FEET WITH NO
SIGNIFICANT WEATHER AND OR OBSTRUCTIONS TO VISIBILITY.


SDZ038>040-050-052>070-231600-
SOUTHEAST SOUTH DAKOTA

CITY           SKY/WX    TMP DP  RH WIND       PRES   REMARKS
BROOKINGS      SUNNY     52  38  58 S5        30.22S
CHAMBERLAIN    SUNNY     56  43  62 CALM      30.18S
HURON            N/A     51  41  68 S6        30.19S
MADISON        FAIR      48  48 100 S3        30.21S
MITCHELL       SUNNY     53  42  66 S5        30.20S
SIOUX FALLS    MOSUNNY   56  34  43 VRB5      30.21F
WINNER         FAIR      58  40  51 S8        30.17S
YANKTON        SUNNY     52  43  71 E6        30.20F
$$

MNZ071-072-080-081-089-090-097-098-231600-
SOUTHWEST MINNESOTA

CITY           SKY/WX    TMP DP  RH WIND       PRES   REMARKS
FAIRMONT       SUNNY     45  37  73 S5        30.24F
JACKSON        SUNNY     52  37  58 S5        30.24S
LUVERNE        SUNNY     52  39  62 CALM      30.23S
MARSHALL       SUNNY     51  40  65 S7        30.23S
MONTEVIDEO     SUNNY     55  39  54 SW5       30.22F
PIPESTONE      SUNNY    N/A N/A N/A S5        30.21F
REDWOOD FALLS  SUNNY     49  42  77 S6        30.23S
TRACY          SUNNY     52  40  64 S9        30.22S
WINDOM         SUNNY     54  32  43 S3        30.23F
WORTHINGTON    SUNNY     52  39  61 S7        30.23F
$$

IAZ001>003-012>014-020>022-031-032-NEZ013-014-SDZ071-231600-
NORTHWEST IOWA

CITY           SKY/WX    TMP DP  RH WIND       PRES   REMARKS
CHEROKEE       SUNNY     57  36  45 SE5       30.22F
DENISON        SUNNY     57  36  44 VRB7      30.22F
ESTHERVILLE      N/A     45  39  79 S3        30.23F
LE MARS        SUNNY     57  37  47 SE7       30.22S
ORANGE CITY    SUNNY     57  41  54 SE3       30.22S
SHELDON        SUNNY     57  37  47 SE8       30.21S
SIOUX CITY     SUNNY     55  36  48 SE5       30.21F
SPENCER        SUNNY     56  37  49 SE5       30.23F
STORM LAKE     SUNNY     55  36  47 E7        30.22S
$$

ABBREVIATIONS USED IN REMARKS
   TC - TEMPERATURE IN CELSIUS
  WCI - WIND CHILL INDEX
   HX - HEAT INDEX
  VSB - VISIBILITY




USA.gov is the U.S. government's official web portal to all federal, state and local government web resources and services.